• en Belgique
  • Liste des pays
  • À 7 jours
  • Température de l'eau
  • Carte satellitaire
  • Carte météo
  • Widgets météo
  • user-avatar
    Se connecter

    Météo par heure à Melbourne

    Ce jour, 25 Avril, Mercredi

    Heure Température Précipitation Vent Pression Humidité
    00:00 +18°C° 0,1 mm 1 m/s 761 mmHg 89%
    01:00 +18°C° 0,1 mm 1 m/s 761 mmHg 92%
    02:00 +16°C° 0 mm 1 m/s 761 mmHg 92%
    03:00 +16°C° 0 mm 1 m/s 761 mmHg 92%
    04:00 +16°C° 0 mm 1 m/s 761 mmHg 92%
    05:00 +16°C° 0 mm 1 m/s 761 mmHg 92%
    06:00 +15°C° 0 mm 1 m/s 761 mmHg 92%
    07:00 +15°C° 0 mm 1 m/s 761 mmHg 91%
    08:00 +18°C° 0 mm 1 m/s 761 mmHg 85%
    09:00 +19°C° 0 mm 1 m/s 761 mmHg 78%
    10:00 +20°C° 0 mm 1 m/s 761 mmHg 74%
    11:00 +21°C° 0 mm 1 m/s 760 mmHg 68%
    12:00 +22°C° 0 mm 1 m/s 760 mmHg 61%
    13:00 +23°C° 0 mm 1 m/s 759 mmHg 55%
    14:00 +23°C° 0 mm 1 m/s 759 mmHg 53%
    15:00 +23°C° 0 mm 2 m/s 759 mmHg 51%
    16:00 +21°C° 0 mm 2 m/s 759 mmHg 55%
    17:00 +20°C° 0 mm 2 m/s 759 mmHg 63%
    18:00 +19°C° 0 mm 1 m/s 760 mmHg 71%
    19:00 +16°C° 0 mm 1 m/s 760 mmHg 79%
    20:00 +16°C° 0 mm 1 m/s 760 mmHg 81%
    21:00 +15°C° 0 mm 1 m/s 761 mmHg 83%
    22:00 +15°C° 0 mm 1 m/s 761 mmHg 85%
    23:00 +14°C° 0 mm 1 m/s 761 mmHg 85%

    Demain, 26 Avril, Jeudi

    Heure Température Précipitation Vent Pression Humidité
    00:00 +14°C° 0 mm 1 m/s 761 mmHg 85%
    01:00 +14°C° 0 mm 2 m/s 761 mmHg 86%
    02:00 +14°C° 0 mm 2 m/s 761 mmHg 86%
    03:00 +13°C° 0 mm 2 m/s 761 mmHg 86%
    04:00 +13°C° 0 mm 2 m/s 761 mmHg 86%
    05:00 +13°C° 0 mm 2 m/s 761 mmHg 86%
    06:00 +13°C° 0 mm 2 m/s 762 mmHg 87%
    07:00 +11°C° 0 mm 3 m/s 762 mmHg 87%
    08:00 +13°C° 0 mm 3 m/s 763 mmHg 80%
    09:00 +16°C° 0 mm 3 m/s 763 mmHg 74%
    10:00 +17°C° 0 mm 4 m/s 763 mmHg 67%
    11:00 +17°C° 0,1 mm 3 m/s 763 mmHg 67%
    12:00 +17°C° 0,1 mm 3 m/s 763 mmHg 67%
    13:00 +17°C° 0,1 mm 3 m/s 763 mmHg 67%
    14:00 +17°C° 0,1 mm 3 m/s 764 mmHg 65%
    15:00 +17°C° 0,1 mm 3 m/s 764 mmHg 63%
    16:00 +17°C° 0,1 mm 3 m/s 764 mmHg 61%
    17:00 +16°C° 0 mm 3 m/s 765 mmHg 65%
    18:00 +13°C° 0 mm 3 m/s 765 mmHg 69%
    19:00 +13°C° 0 mm 2 m/s 766 mmHg 73%
    20:00 +13°C° 0 mm 2 m/s 766 mmHg 75%
    21:00 +12°C° 0 mm 2 m/s 767 mmHg 78%
    22:00 +12°C° 0 mm 2 m/s 767 mmHg 81%
    23:00 +10°C° 0 mm 2 m/s 767 mmHg 83%

    Après-demain, 27 Avril, Vendredi

    Heure Température Précipitation Vent Pression Humidité
    00:00 +10°C° 0 mm 2 m/s 767 mmHg 85%
    01:00 +10°C° 0 mm 2 m/s 767 mmHg 86%
    02:00 +10°C° 0 mm 2 m/s 767 mmHg 88%
    03:00 +10°C° 0 mm 1 m/s 767 mmHg 89%
    04:00 +10°C° 0 mm 1 m/s 767 mmHg 90%
    05:00 +10°C° 0 mm 1 m/s 768 mmHg 91%
    06:00 +10°C° 0 mm 1 m/s 768 mmHg 91%
    07:00 +10°C° 0 mm 1 m/s 769 mmHg 92%
    08:00 +12°C° 0 mm 1 m/s 769 mmHg 83%
    09:00 +14°C° 0 mm 1 m/s 769 mmHg 74%
    10:00 +16°C° 0 mm 1 m/s 769 mmHg 65%
    11:00 +17°C° 0 mm 2 m/s 769 mmHg 59%
    12:00 +18°C° 0 mm 2 m/s 768 mmHg 54%
    13:00 +19°C° 0 mm 2 m/s 768 mmHg 49%
    14:00 +19°C° 0 mm 3 m/s 768 mmHg 50%
    15:00 +19°C° 0 mm 3 m/s 768 mmHg 51%
    16:00 +19°C° 0 mm 3 m/s 767 mmHg 52%
    17:00 +17°C° 0 mm 3 m/s 768 mmHg 61%
    18:00 +16°C° 0 mm 3 m/s 768 mmHg 69%
    19:00 +13°C° 0 mm 3 m/s 769 mmHg 78%
    20:00 +13°C° 0 mm 2 m/s 769 mmHg 82%
    21:00 +13°C° 0 mm 2 m/s 769 mmHg 86%
    22:00 +12°C° 0 mm 2 m/s 769 mmHg 89%
    23:00 +12°C° 0 mm 2 m/s 769 mmHg 90%

    28 Avril, Samedi

    Heure Température Précipitation Vent Pression Humidité
    00:00 +11°C° 0 mm 1 m/s 769 mmHg 91%
    01:00 +11°C° 0 mm 1 m/s 769 mmHg 91%
    02:00 +11°C° 0 mm 1 m/s 768 mmHg 91%
    03:00 +10°C° 0 mm 1 m/s 768 mmHg 91%
    04:00 +10°C° 0 mm 1 m/s 768 mmHg 90%
    05:00 +10°C° 0 mm 1 m/s 768 mmHg 89%
    06:00 +10°C° 0 mm 1 m/s 769 mmHg 88%
    07:00 +10°C° 0 mm 1 m/s 769 mmHg 87%
    08:00 +13°C° 0 mm 1 m/s 769 mmHg 76%
    09:00 +15°C° 0 mm 1 m/s 769 mmHg 66%
    10:00 +19°C° 0 mm 1 m/s 769 mmHg 55%
    11:00 +20°C° 0 mm 1 m/s 768 mmHg 51%
    12:00 +22°C° 0 mm 1 m/s 768 mmHg 46%
    13:00 +23°C° 0 mm 1 m/s 767 mmHg 42%
    14:00 +23°C° 0 mm 1 m/s 767 mmHg 43%
    15:00 +23°C° 0 mm 2 m/s 767 mmHg 44%
    16:00 +23°C° 0 mm 2 m/s 766 mmHg 44%
    17:00 +20°C° 0 mm 2 m/s 767 mmHg 53%
    18:00 +18°C° 0 mm 2 m/s 767 mmHg 62%
    19:00 +15°C° 0 mm 2 m/s 767 mmHg 70%
    20:00 +15°C° 0 mm 2 m/s 768 mmHg 75%
    21:00 +14°C° 0 mm 1 m/s 768 mmHg 80%
    22:00 +13°C° 0 mm 1 m/s 768 mmHg 84%
    23:00 +13°C° 0 mm 1 m/s 768 mmHg 86%

    29 Avril, Dimanche

    Heure Température Précipitation Vent Pression Humidité
    00:00 +12°C° 0 mm 1 m/s 768 mmHg 87%
    01:00 +12°C° 0 mm 1 m/s 768 mmHg 89%
    02:00 +12°C° 0 mm 1 m/s 768 mmHg 90%
    03:00 +12°C° 0 mm 1 m/s 768 mmHg 91%
    04:00 +11°C° 0 mm 1 m/s 768 mmHg 93%
    05:00 +11°C° 0 mm 1 m/s 768 mmHg 94%
    06:00 +11°C° 0 mm 1 m/s 769 mmHg 94%
    07:00 +11°C° 0 mm 1 m/s 769 mmHg 95%
    08:00 +13°C° 0 mm 1 m/s 769 mmHg 87%
    09:00 +15°C° 0 mm 2 m/s 770 mmHg 80%
    10:00 +17°C° 0 mm 2 m/s 770 mmHg 72%
    11:00 +18°C° 0 mm 2 m/s 770 mmHg 66%
    12:00 +20°C° 0 mm 1 m/s 769 mmHg 60%
    13:00 +22°C° 0 mm 1 m/s 769 mmHg 53%
    14:00 +21°C° 0 mm 2 m/s 769 mmHg 54%
    15:00 +21°C° 0 mm 2 m/s 769 mmHg 54%
    16:00 +21°C° 0 mm 2 m/s 768 mmHg 54%
    17:00 +19°C° 0 mm 2 m/s 769 mmHg 66%
    18:00 +17°C° 0 mm 2 m/s 769 mmHg 78%
    19:00 +15°C° 0 mm 2 m/s 770 mmHg 89%
    20:00 +14°C° 0 mm 2 m/s 770 mmHg 91%
    21:00 +14°C° 0 mm 2 m/s 770 mmHg 94%
    22:00 +14°C° 0 mm 2 m/s 770 mmHg 96%
    23:00 +14°C° 0 mm 1 m/s 770 mmHg 96%

    30 Avril, Lundi

    Heure Température Précipitation Vent Pression Humidité
    00:00 +14°C° 0 mm 1 m/s 770 mmHg 95%
    01:00 +14°C° 0 mm 1 m/s 770 mmHg 95%
    02:00 +14°C° 0 mm 1 m/s 770 mmHg 95%
    03:00 +13°C° 0 mm 1 m/s 770 mmHg 95%
    04:00 +12°C° 0 mm 0 m/s 769 mmHg 95%
    05:00 +12°C° 0 mm 0 m/s 770 mmHg 95%
    06:00 +12°C° 0 mm 0 m/s 770 mmHg 95%
    07:00 +12°C° 0 mm 0 m/s 770 mmHg 95%
    08:00 +14°C° 0 mm 0 m/s 770 mmHg 87%
    09:00 +15°C° 0 mm 0 m/s 770 mmHg 79%
    10:00 +17°C° 0 mm 0 m/s 771 mmHg 71%
    11:00 +19°C° 0 mm 0 m/s 770 mmHg 64%
    12:00 +22°C° 0 mm 1 m/s 770 mmHg 57%
    13:00 +24°C° 0 mm 1 m/s 769 mmHg 50%
    14:00 +23°C° 0 mm 1 m/s 769 mmHg 51%
    15:00 +23°C° 0 mm 1 m/s 768 mmHg 51%
    16:00 +23°C° 0 mm 1 m/s 768 mmHg 52%
    17:00 +21°C° 0 mm 1 m/s 768 mmHg 61%
    18:00 +18°C° 0 mm 1 m/s 769 mmHg 70%
    19:00 +15°C° 0 mm 1 m/s 769 mmHg 80%
    20:00 +15°C° 0 mm 1 m/s 769 mmHg 81%
    21:00 +14°C° 0 mm 1 m/s 769 mmHg 83%
    22:00 +13°C° 0 mm 0 m/s 769 mmHg 85%
    23:00 +14°C° 0 mm 1 m/s 769 mmHg 84%
    Voir plus